Regional Weather Roundup
Issued by NWS

Home | Current Version | Previous Version | Graphics & Text | Print | Product List | Glossary Off
Versions: 1 2 3 4 5 6 7 8 9 10 11 12 13 14 15 16 17 18 19 20 21 22 23 24 25 26 27 28 29 30 31 32 33 34 35 36 37 38 39 40 41 42 43 44 45 46 47 48 49 50

000
ASUS44 KFWD 231203
RWRTX
NORTH TEXAS HOURLY WEATHER ROUNDUP
NATIONAL WEATHER SERVICE FORT WORTH TX
700 AM CDT SAT JUN 23 2018

NOTE: "FAIR" INDICATES FEW OR NO CLOUDS BELOW 12,000 FEET WITH NO
SIGNIFICANT WEATHER AND/OR OBSTRUCTIONS TO VISIBILITY.

TXZ118-119-231300-
DALLAS/FORT WORTH METROPLEX

CITY           SKY/WX    TMP DP  RH WIND       PRES   REMARKS
DFW AIRPORT    CLOUDY    79  68  69 E6        29.80R
6HR MIN TEMP:  77; 6HR MAX TEMP:  88;

DALLAS LOVE    CLOUDY    80  69  69 E9        29.81S
6HR MIN TEMP:  80; 6HR MAX TEMP:  89; 6HR PCP: TRACE;

FTW MEACHAM    CLOUDY    80  69  69 E8        29.80S
6HR MIN TEMP:  78; 6HR MAX TEMP:  88;

DAL-EXECUTIVE  CLOUDY    82  74  76 S12G18    29.80S
6HR MIN TEMP:  81; 6HR MAX TEMP:  87;

FTW-ALLIANCE   MOCLDY    78  67  68 NE8       29.82R
6HR MIN TEMP:  77; 6HR MAX TEMP:  88;

FTW-NAS-JRB    CLOUDY    81  66  60 E6        29.80F
6HR MIN TEMP:  79; 6HR MAX TEMP:  89;

FTW-SPINKS     CLOUDY    81  75  83 SE3       29.82S
ARLINGTON      CLOUDY    82  77  84 SE12      29.80S HX  90
6HR MIN TEMP:  81; 6HR MAX TEMP:  87;

GRAND PRAIRIE  CLOUDY    82  73  74 SE9       29.81F
ADDISON        PTCLDY    77  66  69 E10       29.81S
MESQUITE       CLOUDY    79  73  83 SE7       29.81F
LANCASTER      CLOUDY    80  74  84 S7        29.82F
6HR MIN TEMP:  78; 6HR MAX TEMP:  83;

$$

TXZ091>094-102>105-117-120-121-131>134-231300-
NORTH CENTRAL TEXAS

CITY           SKY/WX    TMP DP  RH WIND       PRES   REMARKS
SHRMAN/DENISON CLOUDY    72  66  82 CALM      29.88R
6HR MIN TEMP:  70; 6HR MAX TEMP:  82;

BOWIE          CLOUDY    73  64  71 E8        29.87R
6HR MIN TEMP:  72; 6HR MAX TEMP:  83;

BRIDGEPORT     CLOUDY    74  63  68 NE9       29.87R
6HR MIN TEMP:  74; 6HR MAX TEMP:  89;

DECATUR        CLOUDY    73  64  74 NE10G16   29.86R
6HR MIN TEMP:  73; 6HR MAX TEMP:  87;

DENTON         CLOUDY    74  65  73 N12       29.84R
6HR MIN TEMP:  74; 6HR MAX TEMP:  87;

MCKINNEY       CLOUDY    75  66  73 E8        29.84R
6HR MIN TEMP:  74; 6HR MAX TEMP:  85;

BONHAM         CLOUDY    71  65  81 SE6       29.86R
6HR MIN TEMP:  70; 6HR MAX TEMP:  80;

ROCKWALL       CLOUDY    74  68  80 SE9       29.82S
6HR MIN TEMP:  74; 6HR MAX TEMP:  85;

TERRELL        CLOUDY    80  75  84 S8        29.82F
6HR MIN TEMP:  80; 6HR MAX TEMP:  84;

WAXAHACHIE     CLOUDY    79  74  86 S9        29.82F
6HR MIN TEMP:  79; 6HR MAX TEMP:  84;

CLEBURNE       FAIR      79  77  94 S13G20    29.83R
GRANBURY       FAIR      82  74  77 SE7       29.81S
6HR MIN TEMP:  82; 6HR MAX TEMP:  89;

$$

TXZ083>090-098>101-113>116-127>130-139>142-154-155-231300-
WESTERN NORTH TEXAS

CITY           SKY/WX    TMP DP  RH WIND       PRES   REMARKS
WICHITA FALLS  CLOUDY    73  62  68 E9        29.86R
6HR MIN TEMP:  71; 6HR MAX TEMP:  77; 6HR PCP: TRACE;

WF-KICKAPOO    MOCLDY    74  63  69 NE7       29.89R
6HR MIN TEMP:  72; 6HR MAX TEMP:  85;

VERNON         FAIR      73  62  69 SE18      29.80F THUNDER
6HR MIN TEMP:  72; 6HR MAX TEMP:  73;

ABILENE        FAIR      78  67  68 E10       29.81R
6HR MIN TEMP:  78; 6HR MAX TEMP:  87;

ABILENE-DYESS  FAIR      79  63  58 E8        29.80R
6HR MIN TEMP:  79; 6HR MAX TEMP:  88;

GRAHAM         MOCLDY    74  64  72 E10G17    29.82R
6HR MIN TEMP:  73; 6HR MAX TEMP:  88;

BRECKENRIDGE   FAIR      82  67  61 SE8       29.81R HAZE
6HR MIN TEMP:  82; 6HR MAX TEMP:  90;

CISCO          FAIR      79  70  73 SE9       29.82S
EASTLAND       MOCLDY    78  69  75 SE8       29.82S
6HR MIN TEMP:  78; 6HR MAX TEMP:  86;

RANGER         FAIR      77  69  76 SE7       29.83S
6HR MIN TEMP:  77; 6HR MAX TEMP:  86;

MINERAL WELLS  LGT RAIN  76  66  71 NE7       29.80R
6HR MIN TEMP:  76; 6HR MAX TEMP:  88; 6HR PCP: TRACE;

STEPHENVILLE   FAIR      78  73  83 S3        29.86R
6HR MIN TEMP:  78; 6HR MAX TEMP:  85;

COMANCHE       CLOUDY    78  72  82 SE10      29.83R
6HR MIN TEMP:  77; 6HR MAX TEMP:  85;

BROWNWOOD      CLOUDY    81  72  74 SE7       29.82S
BRADY          MOCLDY    77  72  83 S12       29.81R
$$

TXZ143>147-156>162-174-175-231300-
CENTRAL TEXAS

CITY           SKY/WX    TMP DP  RH WIND       PRES   REMARKS
WACO           MOCLDY    79  73  82 S15       29.83F
6HR MIN TEMP:  79; 6HR MAX TEMP:  85;

WACO-TSTC      CLEAR     77  73  88 S8        29.83
WACO-MCGREGOR  CLOUDY    78  73  84 SE10      29.84S
6HR MIN TEMP:  78; 6HR MAX TEMP:  84;

HILLSBORO      CLOUDY    80  76  87 S13       29.82F
6HR MIN TEMP:  79; 6HR MAX TEMP:  86;

CORSICANA      FAIR      77  74  90 S12       29.84S
6HR MIN TEMP:  77; 6HR MAX TEMP:  82;

MEXIA          FAIR      75  73  91 S7        29.84F
6HR MIN TEMP:  75; 6HR MAX TEMP:  82;

HEARNE         FAIR      75  75 100 SE3       29.86R
6HR MIN TEMP:  75; 6HR MAX TEMP:  80;

CAMERON        FAIR      76  73  93 SE5       29.85R
6HR MIN TEMP:  75; 6HR MAX TEMP:  81;

TEMPLE         CLOUDY    76  74  93 SE9       29.85R
6HR MIN TEMP:  76; 6HR MAX TEMP:  83;

KILLEEN        FAIR      76  73  87 SE5       29.83R
6HR MIN TEMP:  76; 6HR MAX TEMP:  82;

KILLEEN-SKYLRK FAIR      78  74  87 SE6       29.85R
6HR MIN TEMP:  78; 6HR MAX TEMP:  83;

FORT HOOD      MOCLDY    78  73  84 SE5       29.81R
6HR MIN TEMP:  78; 6HR MAX TEMP:  83;

GATESVILLE     FAIR      79  73  83 CALM      29.85S
HAMILTON       MOCLDY    78  75  90 S10       29.84S
6HR MIN TEMP:  78; 6HR MAX TEMP:  83;

LAMPASAS       FAIR      77  73  87 S3        29.84R
6HR MIN TEMP:  77; 6HR MAX TEMP:  83;

$$

TXZ095>097-106>112-122>126-135>138-148>153-164>167-231300-
EAST TEXAS

CITY           SKY/WX    TMP DP  RH WIND       PRES   REMARKS
PARIS          CLOUDY    71  67  87 CALM      29.86R
6HR MIN TEMP:  70; 6HR MAX TEMP:  78; 6HR PCP: TRACE;

SULPHUR SPRNGS FAIR      76  65  70 CALM      29.84F
6HR MIN TEMP:  74; 6HR MAX TEMP:  85;

MOUNT PLEASANT FAIR      77  70  80 CALM      29.85F
6HR MIN TEMP:  77; 6HR MAX TEMP:  82;

GILMER         MOCLDY    78  75  90 S3        29.85S
6HR MIN TEMP:  78; 6HR MAX TEMP:  82;

MINEOLA        CLOUDY    81  75  83 S6        29.84S
TYLER          FAIR      77  75  93 S13       29.84S
6HR MIN TEMP:  77; 6HR MAX TEMP:  83;

LONGVIEW       FAIR      79  77  94 S8        29.83F FOG
6HR MIN TEMP:  78; 6HR MAX TEMP:  82;

MARSHALL       FAIR      76  72  88 S5        29.87S
6HR MIN TEMP:  75; 6HR MAX TEMP:  77;

ATHENS         FAIR      77  73  88 S8        29.82F
PALESTINE      FAIR      76  74  93 SE7       29.86F
JACKSONVILLE   FAIR      75  74  98 S8        29.88F
HENDERSON      FAIR      77  74  91 MISG      29.87S
6HR MIN TEMP:  76; 6HR MAX TEMP:  81;

CENTER         FAIR      76  73  93 SE8       29.90R
6HR MIN TEMP:  75; 6HR MAX TEMP:  82;

NACOGDOCHES      N/A     76  74  93 S6        29.90R
6HR MIN TEMP:  76; 6HR MAX TEMP:  81;

LUFKIN         MOCLDY    76  73  91 S8        29.89R
6HR MIN TEMP:  76; 6HR MAX TEMP:  80;

$$

SUPPLEMENTAL OBSERVATIONS (NWS FORT WORTH AREA)

CITY           SKY/WX    TMP DP  RH WIND       PRES   REMARKS
$$

SUPPLEMENTAL OBSERVATIONS (NWS NORMAN AREA)

CITY           SKY/WX    TMP DP  RH WIND       PRES   REMARKS
GOODLETT         N/A     70  60  71 E18G25    29.83S
ODELL            N


USA.gov is the U.S. government's official web portal to all federal, state and local government web resources and services.